This demonstration page uses our WeatherBlox Daily Observations layout. Learn more.

Left ArrowRight Arrow

34.74481, -87.66753

Hourly Observations for May 2, 2021

Temp ( °F °C ) Dew Point ( °F °C ) Humidity (%) Winds ( mph kmh ) Pressure ( in mb ) Visibility ( mi km ) Precip ( " mm )
12:53 am 00:53 Clear 59 15 51 10.6 75 75 ESE 5 7 29.94 1014 10 16 0.00 0.00
1:53 am 01:53 Clear 61 16.1 53 11.7 75 75 ENE 3 6 29.92 1013 10 16 0.00 0.00
2:53 am 02:53 Mostly Clear 62 16.7 52 11.1 70 70 NE 3 6 29.91 1013 10 16 0.00 0.00
3:53 am 03:53 Mostly Clear 61 16.1 52 11.1 72 72 SE 3 6 29.91 1013 10 16 0.00 0.00
4:53 am 04:53 Mostly Cloudy 62 16.7 50 10 65 65 E 5 7 29.89 1012 10 16 0.00 0.00
5:53 am 05:53 Mostly Clear 61 16.1 50 10 67 67 ESE 6 9 29.88 1012 10 16 0.00 0.00
6:53 am 06:53 Partly Cloudy 63 17.2 49 9.4 60 60 SE 3 6 29.90 1013 10 16 0.00 0.00
7:53 am 07:53 Cloudy 64 17.8 48 8.9 56 56 SE 5 7 29.90 1012 10 16 0.00 0.00
8:53 am 08:53 Partly Cloudy 67 19.4 50 10 55 55 ESE 5 7 29.89 1012 10 16 0.00 0.00
9:53 am 09:53 Partly Cloudy 72 22.2 46 7.8 40 40 SSE 7 11 29.88 1012 10 16 0.00 0.00
10:53 am 10:53 Cloudy 74 23.3 49 9.4 41 41 SSE 7 11 29.89 1012 10 16 0.00 0.00
11:53 am 11:53 Cloudy 73 22.8 51 10.6 46 46 SSE 7 11 29.87 1011 10 16 0.00 0.00
12:53 pm 12:53 Partly Cloudy 73 22.8 52 11.1 48 48 SSE 7 11 29.83 1010 10 16 0.00 0.00
1:53 pm 13:53 Cloudy 75 23.9 55 12.8 50 50 ESE 3 6 29.80 1009 10 16 0.00 0.00
2:53 pm 14:53 Mostly Cloudy 75 23.9 56 13.3 52 52 S 5 7 29.78 1009 10 16 0.00 0.00
3:53 pm 15:53 Mostly Cloudy 75 23.9 55 12.8 50 50 SSE 9 15 29.77 1008 10 16 0.00 0.00
4:53 pm 16:53 Cloudy 73 22.8 58 14.4 59 59 SSE 8 13 29.76 1008 10 16 0.00 0.00
7:12 pm 19:12 Cloudy with Light Rain 69 20.6 61 16.1 76 76 SE 5 7 29.72 1006 8 13 0.01 0.25
7:49 pm 19:49 Cloudy with Light Rain 66 19 63 17 88 88 ESE 8 13 29.71 1006 9 14 0.03 0.76
7:53 pm 19:53 Cloudy with Light Rain 67 19.4 62 16.7 84 84 ESE 7 11 29.71 1006 10 16 0.03 0.76
8:53 pm 20:53 Mostly Cloudy 68 20 62 16.7 81 81 SSE 14 22 29.70 1006 10 16 0.00 0.00
9:53 pm 21:53 Cloudy 69 20.6 62 16.7 78 78 SSE 12 19 29.69 1006 10 16 0.00 0.00
10:13 pm 22:13 Cloudy with Light Rain 69 20.6 63 17.2 81 81 S 14 22 29.70 1006 10 16 0.00 0.00
10:53 pm 22:53 Cloudy 70 21.1 63 17.2 79 79 SSE 16 26 29.68 1005 10 16 0.03 0.76
11:53 pm 23:53 Mostly Cloudy with Nearby Thunderstorms 71 21.7 64 17.8 79 79 S 12 19 29.68 1005 10 16 0.00 0.00

Powered by AerisWeather